Weather History for Omaha Millard, NE

Change the Weather History Date:

Tuesday, July 16, 2013

  Actual Average (KOMA) Record (KOMA)
Temperature  
Mean Temperature 79 °F 77 °F  
Max Temperature 90 °F 88 °F 106 °F (1936)
Min Temperature 68 °F 67 °F 53 °F (2014)
Degree Days  
Heating Degree Days 0 0  
Month to date heating degree days 0  
Since 1 June heating degree days 17  
Since 1 July heating degree days 0  
Cooling Degree Days 14 12  
Month to date cooling degree days 188  
Year to date cooling degree days 500  
Since 1 June cooling degree days 418  
Growing Degree Days 29 (Base 50)    
Moisture  
Dew Point 67 °F    
Average Humidity 66    
Maximum Humidity 95    
Minimum Humidity 43    
Precipitation  
Precipitation 0.00 in 0.12 in 2.08 in (1900)
Month to date precipitation 1.98  
Year to date precipitation 17.44  
Snow  
Snow 0.00 in 0.00 in - ()
Month to date snowfall 0.0  
Since 1 July snowfall 0.0  
Snow Depth -    
Sea Level Pressure  
Sea Level Pressure 30.22 in    
Wind  
Wind Speed 2 mph (SSE)    
Max Wind Speed 10 mph    
Max Gust Speed 21 mph    
Visibility 10 miles    
Events      
T = Trace of Precipitation, MM = Missing Value Source: NWS Daily Summary

Daily Weather History Graph

Daily Weather History Graph

Search for Another Location

Airport:

Trip Planner

Search our weather history database for the weather conditions in past years. The results will help you decide how hot, cold, wet, or windy it might be!

Date:

Astronomy

Jul. 16, 2013 Rise Set
Actual Time 6:05 AM CDT 8:54 PM CDT
Civil Twilight 5:33 AM CDT 9:27 PM CDT
Nautical Twilight 4:52 AM CDT 10:08 PM CDT
Astronomical Twilight 4:04 AM CDT 10:55 PM CDT
Moon 2:36 PM CDT (7/16) 12:37 AM CDT (7/16)
Length of Visible Light 15h 54m
Length of Day
14h 49m
First Quarter, 56% of the Moon is Illuminated
Jul 16
First Quarter
Jul 22
Full
Jul 29
Last Quarter
Aug 6
New
Aug 14
First Quarter

Hourly Weather History & Observations

Time (CDT) Temp. Heat Index Dew Point Humidity Pressure Visibility Wind Dir Wind Speed Gust Speed Precip Events Conditions
12:15 AM 75.6 °F - 68.5 °F 79% 30.18 in 10.0 mi Calm Calm - N/A   Clear
12:35 AM 76.1 °F - 68.9 °F 78% 30.18 in 10.0 mi SE 3.5 mph - N/A   Clear
12:55 AM 75.4 °F - 68.4 °F 79% 30.18 in 10.0 mi Calm Calm - N/A   Clear
1:15 AM 75.4 °F - 68.9 °F 80% 30.18 in 10.0 mi ESE 3.5 mph - N/A   Clear
1:35 AM 75.2 °F - 68.9 °F 81% 30.18 in 10.0 mi ESE 3.5 mph - N/A   Clear
1:55 AM 74.7 °F - 68.9 °F 82% 30.18 in 10.0 mi Calm Calm - N/A   Clear
2:15 AM 74.7 °F - 68.2 °F 80% 30.18 in 10.0 mi Calm Calm - N/A   Clear
2:35 AM 73.9 °F - 68.0 °F 82% 30.19 in 10.0 mi Calm Calm - N/A   Clear
2:55 AM 73.2 °F - 68.0 °F 84% 30.18 in 10.0 mi Calm Calm - N/A   Clear
3:15 AM 72.0 °F - 68.0 °F 87% 30.18 in 10.0 mi Calm Calm - N/A   Clear
3:35 AM 72.1 °F - 68.0 °F 87% 30.19 in 10.0 mi Calm Calm - N/A   Clear
3:55 AM 70.7 °F - 67.5 °F 89% 30.19 in 10.0 mi Calm Calm - N/A   Clear
4:15 AM 70.9 °F - 68.0 °F 91% 30.19 in 10.0 mi Calm Calm - N/A   Scattered Clouds
4:35 AM 70.9 °F - 68.0 °F 91% 30.19 in 10.0 mi Calm Calm - N/A   Clear
4:55 AM 70.9 °F - 68.0 °F 91% 30.19 in 10.0 mi Calm Calm - N/A   Clear
5:15 AM 70.0 °F - 68.0 °F 93% 30.20 in 10.0 mi Calm Calm - N/A   Clear
5:35 AM 69.4 °F - 67.6 °F 94% 30.20 in 10.0 mi Calm Calm - N/A   Clear
5:55 AM 68.9 °F - 67.5 °F 95% 30.21 in 7.0 mi Calm Calm - N/A   Clear
6:15 AM 69.4 °F - 68.0 °F 95% 30.21 in 10.0 mi Calm Calm - N/A   Clear
6:35 AM 69.4 °F - 67.8 °F 95% 30.22 in 10.0 mi Calm Calm - N/A   Clear
6:55 AM 69.8 °F - 68.0 °F 94% 30.22 in 10.0 mi Calm Calm - N/A   Clear
7:15 AM 71.6 °F - 68.5 °F 90% 30.22 in 10.0 mi Calm Calm - N/A   Clear
7:35 AM 72.9 °F - 69.1 °F 88% 30.23 in 10.0 mi Calm Calm - N/A   Clear
7:55 AM 75.2 °F - 69.6 °F 83% 30.23 in 10.0 mi Calm Calm - N/A   Clear
8:15 AM 75.4 °F - 69.1 °F 81% 30.24 in 10.0 mi ESE 3.5 mph - N/A   Clear
8:35 AM 76.6 °F - 67.3 °F 73% 30.25 in 10.0 mi East 3.5 mph - N/A   Clear
8:55 AM 78.6 °F - 67.8 °F 69% 30.26 in 10.0 mi Calm Calm - N/A   Clear
9:15 AM 79.7 °F - 64.6 °F 60% 30.26 in 10.0 mi South 3.5 mph - N/A   Clear
9:35 AM 80.2 °F 81.8 °F 63.9 °F 57% 30.26 in 10.0 mi Calm Calm - N/A   Clear
9:55 AM 81.0 °F 82.5 °F 64.0 °F 56% 30.26 in 10.0 mi SSW 4.6 mph - N/A   Clear
10:15 AM 81.7 °F 83.3 °F 64.4 °F 56% 30.26 in 10.0 mi Calm Calm - N/A   Clear
10:55 AM 83.1 °F 84.4 °F 63.7 °F 52% 30.27 in 10.0 mi Calm Calm - N/A   Clear
11:15 AM 83.1 °F 84.4 °F 63.9 °F 52% 30.26 in 10.0 mi SSW 4.6 mph - N/A   Clear
11:35 AM 83.7 °F 85.1 °F 64.2 °F 52% 30.26 in 10.0 mi South 4.6 mph - N/A   Clear
11:55 AM 84.4 °F 85.9 °F 64.2 °F 51% 30.26 in 10.0 mi South 5.8 mph - N/A   Clear
12:15 PM 85.3 °F 86.6 °F 64.4 °F 49% 30.26 in 10.0 mi SE 3.5 mph - N/A   Clear
12:35 PM 85.3 °F 86.6 °F 63.9 °F 49% 30.26 in 10.0 mi South 3.5 mph - N/A   Clear
12:55 PM 86.2 °F 87.3 °F 63.7 °F 47% 30.26 in 10.0 mi South 4.6 mph - N/A   Clear
1:15 PM 86.9 °F 88.3 °F 64.6 °F 47% 30.25 in 10.0 mi SW 5.8 mph - N/A   Clear
1:35 PM 86.4 °F 87.6 °F 63.9 °F 47% 30.25 in 10.0 mi SSE 6.9 mph - N/A   Clear
1:55 PM 86.7 °F 88.1 °F 64.0 °F 47% 30.24 in 10.0 mi SSW 3.5 mph - N/A   Clear
2:15 PM 87.6 °F 88.8 °F 64.0 °F 45% 30.24 in 10.0 mi SSW 5.8 mph - N/A   Clear
2:35 PM 88.0 °F 89.3 °F 64.0 °F 45% 30.24 in 10.0 mi SSE 5.8 mph - N/A   Clear
3:55 PM 89.2 °F 90.6 °F 64.2 °F 43% 30.23 in 10.0 mi South 5.8 mph - N/A   Scattered Clouds
4:15 PM 89.8 °F 91.8 °F 65.1 °F 44% 30.22 in 10.0 mi South 6.9 mph - N/A   Scattered Clouds
4:35 PM 89.2 °F 91.3 °F 65.5 °F 45% 30.22 in 10.0 mi SSE 10.4 mph 20.7 mph N/A   Scattered Clouds
4:55 PM 89.6 °F 92.2 °F 66.0 °F 46% 30.22 in 10.0 mi SE 8.1 mph - N/A   Scattered Clouds
5:15 PM 90.5 °F 93.3 °F 66.7 °F 45% 30.22 in 10.0 mi SE 9.2 mph - N/A   Scattered Clouds
5:35 PM 89.6 °F 91.5 °F 65.3 °F 44% 30.22 in 10.0 mi SSE 5.8 mph - N/A   Scattered Clouds
5:55 PM 89.2 °F 91.3 °F 65.5 °F 45% 30.22 in 10.0 mi South 4.6 mph - N/A   Scattered Clouds
6:15 PM 88.9 °F 91.0 °F 65.8 °F 46% 30.21 in 10.0 mi SSE 8.1 mph - N/A   Clear
6:35 PM 88.7 °F 91.5 °F 66.6 °F 48% 30.22 in 10.0 mi SE 6.9 mph - N/A   Clear
6:55 PM 88.3 °F 90.9 °F 66.2 °F 48% 30.21 in 10.0 mi SSE 5.8 mph - N/A   Clear
7:15 PM 88.2 °F 90.6 °F 66.2 °F 48% 30.21 in 10.0 mi SE 9.2 mph - N/A   Clear
7:35 PM 87.4 °F 90.1 °F 66.9 °F 50% 30.22 in 10.0 mi SE 6.9 mph - N/A   Clear
7:55 PM 86.4 °F 89.4 °F 67.3 °F 53% 30.22 in 10.0 mi SE 5.8 mph - N/A   Clear
8:15 PM 85.5 °F 88.2 °F 67.1 °F 54% 30.22 in 10.0 mi SE 5.8 mph - N/A   Clear
8:35 PM 84.4 °F 87.3 °F 67.5 °F 57% 30.22 in 10.0 mi SE 3.5 mph - N/A   Clear
8:55 PM 83.7 °F 86.5 °F 67.5 °F 58% 30.22 in 10.0 mi ESE 3.5 mph - N/A   Clear
9:15 PM 82.9 °F 85.6 °F 67.5 °F 59% 30.23 in 10.0 mi ESE 3.5 mph - N/A   Clear
9:35 PM 82.4 °F 85.2 °F 67.6 °F 61% 30.23 in 10.0 mi SE 3.5 mph - N/A   Clear
9:55 PM 81.5 °F 84.2 °F 68.0 °F 63% 30.24 in 10.0 mi Calm Calm - N/A   Clear
10:15 PM 80.6 °F 83.2 °F 68.0 °F 65% 30.24 in 10.0 mi Calm Calm - N/A   Clear
10:35 PM 79.7 °F - 68.4 °F 68% 30.25 in 10.0 mi SE 3.5 mph - N/A   Clear
10:55 PM 79.7 °F - 68.5 °F 69% 30.25 in 10.0 mi SSE 3.5 mph - N/A   Clear
11:15 PM 79.2 °F - 68.7 °F 70% 30.25 in 10.0 mi Calm Calm - N/A   Clear
11:35 PM 77.9 °F - 69.3 °F 75% 30.25 in 10.0 mi Calm Calm - N/A   Clear
11:55 PM 77.2 °F - 69.4 °F 77% 30.26 in 10.0 mi Calm Calm - N/A   Clear